Regional Weather Roundup
Issued by NWS

Home | Current Version | Previous Version | Graphics & Text | Print | Product List | Glossary On
Versions: 1 2 3 4 5 6 7 8 9 10 11 12 13 14 15 16 17 18 19 20 21 22 23 24 25 26 27 28 29 30 31 32 33 34 35 36 37 38 39 40 41 42 43 44 45 46 47 48 49 50
000
ASUS45 KCYS 070510
RWRWY

WYOMING REGIONAL WEATHER ROUNDUP
NATIONAL WEATHER SERVICE CHEYENNE WY
1100 PM MDT MON JUL 06 2015

NOTE:  "FAIR" INDICATES FEW OR NO CLOUDS BELOW 12,000 FEET
WITH NO SIGNIFICANT WEATHER AND/OR OBSTRUCTIONS TO VISIBILITY.

WYZ001-070600-
YELLOWSTONE NATIONAL PARK

CITY           SKY/WX    TMP DP  RH WIND       PRES   REMARKS
LK YELLOWSTONE   N/A     50  47  89 NW3       30.34R
W YELLOWSTONE  NOT AVBL

$$
WYZ002>013-054>058-071-098>099-070600-
NORTHERN WYOMING

CITY           SKY/WX    TMP DP  RH WIND       PRES   REMARKS
JACKSON        FAIR      59  52  77 NW5       30.25S
CODY           FAIR      63  54  72 S5        30.19S
GREYBULL       FAIR      67  52  58 CALM      30.13S
WORLAND        FAIR      64  55  72 E6        30.14S
SHERIDAN       FAIR      58  53  84 E3        30.17S
BUFFALO        FAIR      57  52  83 SE8       30.20F
GILLETTE       FAIR      50  47  89 S5        30.20S
HULETT         MOCLDY    55  52  88 E6        30.23S
NEWCASTLE      FAIR      59  52  77 SE10      30.24S

$$
WYZ014>020-022>026-101>103-070600-
CENTRAL WYOMING

CITY           SKY/WX    TMP DP  RH WIND       PRES   REMARKS
BIG PINEY      CLOUDY    56  52  86 W6        30.32R
PINEDALE       CLOUDY    55  52  88 NW3       30.33R
DUBOIS         RAIN      52  50  93 SE6       30.33R
LANDER         CLOUDY    58  52  80 W7        30.22R
RIVERTON       MOCLDY    62  55  77 W7        30.22S
CASPER         FAIR      58  52  80 E9        30.23R
DOUGLAS        FAIR      55  53  93 SE8       30.25F FOG

$$
WYZ021-027>030-104>119-070600-
SOUTHERN WYOMING

CITY           SKY/WX    TMP DP  RH WIND       PRES   REMARKS
EVANSTON       FAIR      58  48  69 E12       30.27F
KEMMERER       FAIR      55  50  82 E3        30.31S
FORT BRIDGER   LGT RAIN  57  57 100 SE6       30.30F
ROCK SPRINGS   FAIR      55  52  89 SE9       30.28S
DIXON          HVY RAIN  59  54  83 NW20G30   30.31R
RAWLINS        FAIR      57  52  83 NE16      30.29S
SARATOGA       FAIR      55  54  94 W6        30.28S
LARAMIE        CLOUDY    53  50  89 SE16      30.32S
CHEYENNE       LGT RAIN  55  53  93 SE13      30.32F FOG
TORRINGTON     CLOUDY    63  57  81 E5        30.24S HAZE
PINE BLUFFS    DRIZZLE   59  54  82 E10       30.32R

$$



USA.gov is the U.S. government's official web portal to all federal, state and local government web resources and services.